Satellite-Ground Cal/Val Region Overpasses Predictions

Prediction of Satellite NPP Overpassing Cal/Val Region: PacNW

Region Location: (Latitude: 10.00, Longitude: 139.50) to (Latitude: 22.70, Longitude: 165.60).

Table of predicted overpasses for the next 14.0 days since TLE Epoch: 12/16/2017
Interval Starting Time Starting Location Ending Time Ending Location
1 12/16/2017 15:49:37 ( 22.67, 147.51) 12/16/2017 15:53:12 ( 10.05, 144.51)
2 12/17/2017 02:58:42 ( 10.03, 155.04) 12/17/2017 03:02:17 ( 22.65, 152.04)
3 12/17/2017 15:30:34 ( 22.68, 152.27) 12/17/2017 15:34:10 ( 10.00, 149.25)
4 12/18/2017 02:39:39 ( 10.02, 159.80) 12/18/2017 02:43:14 ( 22.64, 156.80)
5 12/18/2017 15:11:32 ( 22.69, 157.03) 12/18/2017 15:15:08 ( 10.01, 154.01)
6 12/19/2017 02:20:37 ( 10.01, 164.56) 12/19/2017 02:24:13 ( 22.69, 161.54)
7 12/19/2017 14:52:29 ( 22.70, 161.79) 12/19/2017 14:56:05 ( 10.02, 158.78)
8 12/20/2017 03:43:04 ( 10.01, 143.94) 12/20/2017 03:46:40 ( 22.69, 140.93)
9 12/20/2017 14:34:33 ( 18.84, 165.60) 12/20/2017 14:37:03 ( 10.03, 163.54)
10 12/20/2017 16:14:58 ( 22.64, 141.16) 12/20/2017 16:16:54 ( 15.84, 139.51)
11 12/21/2017 03:24:02 ( 10.00, 148.70) 12/21/2017 03:27:38 ( 22.68, 145.69)
12 12/21/2017 15:55:55 ( 22.65, 145.92) 12/21/2017 15:59:30 ( 10.03, 142.92)
13 12/22/2017 03:05:00 ( 10.05, 153.45) 12/22/2017 03:08:35 ( 22.67, 150.45)
14 12/22/2017 15:36:53 ( 22.66, 150.68) 12/22/2017 15:40:28 ( 10.04, 147.68)
15 12/23/2017 02:45:58 ( 10.04, 158.21) 12/23/2017 02:49:33 ( 22.67, 155.21)
16 12/23/2017 15:17:51 ( 22.67, 155.44) 12/23/2017 15:21:26 ( 10.05, 152.44)
17 12/24/2017 02:26:55 ( 10.03, 162.97) 12/24/2017 02:30:30 ( 22.66, 159.97)
18 12/24/2017 14:58:48 ( 22.68, 160.20) 12/24/2017 15:02:24 ( 10.00, 157.19)
19 12/25/2017 02:10:28 ( 19.13, 165.60) 12/25/2017 02:11:28 ( 22.65, 164.73)
20 12/25/2017 03:49:23 ( 10.03, 142.36) 12/25/2017 03:52:48 ( 22.07, 139.50)
21 12/25/2017 14:39:46 ( 22.69, 164.96) 12/25/2017 14:43:22 ( 10.01, 161.95)
22 12/25/2017 16:21:16 ( 22.68, 139.59) 12/25/2017 16:21:21 ( 22.39, 139.51)
23 12/26/2017 03:30:20 ( 10.03, 147.12) 12/26/2017 03:33:55 ( 22.65, 144.12)
24 12/26/2017 16:02:13 ( 22.69, 144.35) 12/26/2017 16:05:49 ( 10.01, 141.33)
25 12/27/2017 03:11:18 ( 10.02, 151.88) 12/27/2017 03:14:53 ( 22.64, 148.88)
26 12/27/2017 15:43:11 ( 22.70, 149.11) 12/27/2017 15:46:47 ( 10.02, 146.09)
27 12/28/2017 02:52:15 ( 10.01, 156.64) 12/28/2017 02:55:51 ( 22.70, 153.62)
28 12/28/2017 15:24:09 ( 22.64, 153.85) 12/28/2017 15:27:44 ( 10.03, 150.85)
29 12/29/2017 02:33:13 ( 10.01, 161.40) 12/29/2017 02:36:49 ( 22.69, 158.38)
30 12/29/2017 15:05:07 ( 22.65, 158.61) 12/29/2017 15:08:42 ( 10.03, 155.62)
31 12/30/2017 02:14:53 ( 12.47, 165.59) 12/30/2017 02:17:47 ( 22.68, 163.14)


NCC Satellite Cal/Val Overpasses Prediction Service
